Simultaneous Nadir Overpasses (SNOs) Predictions

Prediction of SNOs between GOES-14 and NOAA-20 Satellite Orbit:

Table of predicted SNOs for the next 14.0 days since TLE Epoch: 3/3/2023
Index Date Time (GOES-14) GOES-14 Lat,Lon NOAA-20 Lat,Lon Distance(km) Time Diff (sec)
1 03/04/2023 08:18:01 0.08,-107.90 -0.86,-103.66 482.52 80
2 03/05/2023 20:39:59 -0.09,-107.93 -0.30,-108.97 118.41 80
3 03/06/2023 20:23:54 -0.09,-107.92 0.67,-104.44 396.43 80
4 03/08/2023 08:45:44 0.10,-107.85 0.48,-109.71 211.93 80
5 03/09/2023 08:24:19 0.09,-107.83 -0.49,-105.17 302.25 80
6 03/10/2023 20:46:17 -0.10,-107.85 -0.71,-110.48 299.65 80
7 03/11/2023 20:30:13 -0.09,-107.84 0.33,-105.95 215.06 80
8 03/13/2023 08:52:01 0.10,-107.77 0.88,-111.22 392.68 80
9 03/14/2023 08:30:38 0.10,-107.75 -0.16,-106.69 121.03 80
10 03/15/2023 20:52:34 -0.11,-107.75 -1.08,-111.99 482.80 80
11 03/16/2023 20:36:31 -0.11,-107.74 -0.04,-107.46 31.49 80
